Regional Weather Roundup
Issued by NWS Upton, NY

Current Version | Previous Version | Text Only | Print | Product List | Glossary On
Versions: 1 2 3 4 5 6 7 8 9 10 11 12 13 14 15 16 17 18 19 20 21 22 23 24 25 26 27
000
ASUS41 KOKX 162108
RWROKX

REGIONAL WEATHER ROUNDUP
NATIONAL WEATHER SERVICE NEW YORK NY
500 PM EDT WED AUG 16 2017

NOTE: "FAIR" INDICATES FEW OR NO CLOUDS BELOW 12,000 FEET WITH NO
SIGNIFICANT WEATHER AND/OR OBSTRUCTIONS TO VISIBILITY.

NYZ071-072-176-178-NJZ106-104-162200-
NEW YORK CITY METRO AREA

CITY           SKY/WX    TMP DP  RH WIND       PRES   REMARKS
Central Park   MOSUNNY   83  62  49 CALM      29.98F
Bronx Bot Gard   N/A     82  61  47 SW3       29.98R
LaGuardia APRT PTSUNNY   85  62  46 N3        29.94F
Kennedy INTL   PTSUNNY   86  64  47 NE8       29.96S
Breezy Point     N/A     81 N/A N/A W6          N/A
Newark/Liberty PTSUNNY   84  60  44 W15G22    29.95F
Teterboro      PTSUNNY   86  61  42 NW9       29.94S
$$

NYZ177-179-078>081-162200-
LONG ISLAND NEW YORK

CITY           SKY/WX    TMP DP  RH WIND       PRES   REMARKS
Jones Beach      N/A     81 N/A N/A SW2         N/A
Matinecock PT    N/A     81 N/A N/A E1          N/A
Farmingdale    SUNNY     85  60  42 N9        29.95S
MacArthur/ISP  MOSUNNY   85  60  42 N13       29.95S
Shirley        MOSUNNY   87  62  43 NW12      29.95S
Mt Sinai Harb    N/A     82 N/A N/A NW2         N/A
Westhampton    MOSUNNY   84  59  42 NW10G16   29.96R
East Hampton   FAIR      83  62  48 W5        29.94R
Montauk          N/A     81  70  69 S5        29.94R
$$

NYZ052-065-067-162200-
HUDSON VALLEY

CITY           SKY/WX    TMP DP  RH WIND       PRES   REMARKS
White Plains   PTSUNNY   81  62  52 NW6       29.96F
Larchmont Harb   N/A     79 N/A N/A SE3         N/A
Croton On Huds   N/A     82 N/A N/A W6          N/A
Newburgh       PTSUNNY   81  64  57 VRB6      29.98F
Montgomery     CLOUDY    82  64  54 NE6       29.96S
Poughkeepsie   MOSUNNY   83  60  45 N6        29.95S
Albany         PTSUNNY   81  54  39 NW15      29.96S
$$

NJZ001-105-106-008-010-013-015-019>022-104-162200-
NEW JERSEY

CITY           SKY/WX    TMP DP  RH WIND       PRES   REMARKS
Newark/Liberty PTSUNNY   84  60  44 W15G22    29.95F
Teterboro      PTSUNNY   86  61  42 NW9       29.94S
Caldwell       MOSUNNY   84  65  52 VRB6      29.97F
Somerville     MOSUNNY   86  64  47 NW9       29.95F
Linden         FAIR      85  58  39 N8        29.96S
Perth Amboy      N/A     82 N/A N/A N13         N/A
Sussex         SUNNY     82  61  48 VRB5      29.98F
Andover          N/A     83  63  50 VRB5      29.99F
Trenton        SUNNY     85  65  51 N9        29.96S
Millville      PTSUNNY   88  71  57 W8        29.96S HX  94
Atlantic City  SUNNY     82  67  60 SE9       29.97S
Wrightstown    MOSUNNY   84  68  57 NE9       29.93S
Toms River     NOT AVBL
Belmar         SUNNY     85  61  44 NW8       29.97S
$$

PAZ047>061-062-071-162200-
EASTERN PENNSYLVANIA

CITY           SKY/WX    TMP DP  RH WIND       PRES   REMARKS
Philadelphia   MOSUNNY   88  62  41 NW10      29.96F
Allentown      MOSUNNY   84  61  45 N8        29.98S
Scranton       SUNNY     81  61  50 N10       30.02F
$$

CTZ002-004>006-009-010-012-RIZ004-006-007-MAZ004-011-015-162200-
SOUTHERN NEW ENGLAND
 IN CT

CITY           SKY/WX    TMP DP  RH WIND       PRES   REMARKS
Bradley INTL   MOSUNNY   84  58  40 N9        29.94R
Hartford       MOSUNNY   85  58  39 N12       29.93R
Danbury        MOSUNNY   83  60  45 NW6       29.98S
Wtrbury/Oxford SUNNY     80  60  50 NW10      29.99R
Norwalk Harbor   N/A     81 N/A N/A NW3         N/A
Bridgeport     MOSUNNY   84  58  40 N10       29.94S
Meriden          N/A     84  58  40 NW14      29.94R
New Haven      MOSUNNY   83  58  42 NW7       29.94S
Chester        NOT AVBL
Groton         SUNNY     86  60  41 NW9       29.91S
Wilimantic     MOSUNNY   84  59  42 N10       29.93R

 IN RI

CITY           SKY/WX    TMP DP  RH WIND       PRES   REMARKS
Providence     PTSUNNY   84  59  42 N8        29.92R
Block Island   SUNNY     79  67  66 SW13      29.94R
Westerly       MOSUNNY   77  67  71 SE7       29.93S
 IN MA

CITY           SKY/WX    TMP DP  RH WIND       PRES   REMARKS
Boston         PTSUNNY   83  56  39 NW15G21   29.90F
Worcester      SUNNY     78  54  43 NW7       29.97S
Westfield      SUNNY     84  57  39 NW6       29.94R
Provincetown   SUNNY     77  61  57 N6        29.92S
Nantucket      SUNNY     78  63  59 MISG      29.91F
$$

ANZ330-335-338-340-345-350-353-355-162200-
COASTAL MARINE OBSERVATIONS


STATION/POSITION TIME  SKY/WX   TEMP    WIND        PRES    VSBY  WAVE
                                AIR SEA DIR/SP/G                  HT/PER
                 (UTC)          (F)     (DEG/KT/KT) (MB)    (MI)  (FT/S)
NY HARB ENTRANCE 1950            80 78  200/  2/  4 1013.7          5/11
GREAT SOUTH BAY  2030            82 79  330/  8/ 10   N/A
23 SSW MONTAUK P 1950            76 74              1013.9          4/12
15 E BARNEGAT LI 2030               78                N/A           4/10
HUDSON CANYON    1950            75 75  340/  8/  8 1014.0          4/12
KINGS POINT      2024            82 74   90/  4/  5 1014.3
EXECUTION ROCKS  NOT AVBL
WESTERN LI SOUND NOT AVBL
CENTRAL LI SOUND NOT AVBL
EASTERN LI SOUND NOT AVBL
ROBBINS REEF     2030                   310/  8/ 13 1014.9
$$


>>>>>>>>>>>>>>>>>>>>>>>>>>>> KEY <<<<<<<<<<<<<<<<<<<<<<<<<<<
>                                                          <
>     SKY/WX - Sky Condition/Present Weather               <
>     TMP    - Temperature in Fahrenheit                   <
>     DP     - Dew Point in Fahrenheit                     <
>     RH     - Relative Humidity in Percent                <
>     WIND   - Direction (from) and Speed in MPH           <
>     PRES   - Mean Sea Level Pressure (inches of Hg)      <
>     WCI    - Wind Chill Index                            <
>     VSB    - VISIBILITY IN MILES                         <
>     HX     - HEAT INDEX                                  <
>     TC     - TEMPERATURE IN CELSIUS                      <
>     VRB    - VARIABLE WIND DIRECTION                     <
>                                                          <
>>>>>>>>>>>>>>>>>>>>>>>>>>>> KEY <<<<<<<<<<<<<<<<<<<<<<<<<<<




USA.gov is the U.S. government's official web portal to all federal, state and local government web resources and services.